TimePDT,TemperatureF,Dew PointF,Humidity,Sea Level PressureIn,VisibilityMPH,Wind Direction,Wind SpeedMPH,Gust SpeedMPH,PrecipitationIn,Events,Conditions,WindDirDegrees,DateUTC
12:53 AM,61.0,46.0,58,30.11,10.0,WNW,6.9,-,N/A,,Clear,300,2013-05-12 07:53:00
1:53 AM,60.1,46.9,62,30.10,10.0,Calm,Calm,-,N/A,,Clear,0,2013-05-12 08:53:00
2:53 AM,59.0,48.0,67,30.09,10.0,Calm,Calm,-,N/A,,Clear,0,2013-05-12 09:53:00
3:53 AM,59.0,48.0,67,30.09,10.0,Calm,Calm,-,N/A,,Clear,0,2013-05-12 10:53:00
4:53 AM,55.0,46.9,74,30.09,10.0,Calm,Calm,-,N/A,,Clear,0,2013-05-12 11:53:00
5:53 AM,55.9,48.0,75,30.10,10.0,Calm,Calm,-,N/A,,Clear,0,2013-05-12 12:53:00
6:53 AM,57.9,48.9,72,30.12,10.0,Calm,Calm,-,N/A,,Clear,0,2013-05-12 13:53:00
7:53 AM,62.1,50.0,65,30.12,10.0,West,5.8,-,N/A,,Clear,280,2013-05-12 14:53:00
8:53 AM,66.9,50.0,54,30.13,10.0,SW,3.5,-,N/A,,Clear,230,2013-05-12 15:53:00
9:53 AM,75.0,51.1,43,30.12,10.0,West,8.1,-,N/A,,Clear,280,2013-05-12 16:53:00
10:53 AM,80.1,48.9,34,30.11,10.0,WNW,11.5,-,N/A,,Clear,290,2013-05-12 17:53:00
11:53 AM,82.9,50.0,32,30.11,10.0,WNW,10.4,-,N/A,,Clear,300,2013-05-12 18:53:00
12:53 PM,84.9,48.9,29,30.10,10.0,West,11.5,-,N/A,,Clear,260,2013-05-12 19:53:00
1:53 PM,87.1,45.0,23,30.09,10.0,WNW,15.0,-,N/A,,Clear,290,2013-05-12 20:53:00
2:53 PM,86.0,48.9,28,30.07,10.0,West,16.1,-,N/A,,Clear,280,2013-05-12 21:53:00
3:53 PM,84.0,51.1,32,30.05,10.0,West,16.1,-,N/A,,Clear,280,2013-05-12 22:53:00
4:53 PM,82.9,52.0,34,30.04,10.0,West,15.0,-,N/A,,Clear,270,2013-05-12 23:53:00
5:53 PM,82.0,53.1,37,30.03,10.0,West,12.7,-,N/A,,Clear,270,2013-05-13 00:53:00
6:53 PM,78.1,50.0,37,30.02,10.0,West,10.4,-,N/A,,Clear,280,2013-05-13 01:53:00
7:53 PM,72.0,48.9,44,30.01,10.0,West,8.1,-,N/A,,Clear,280,2013-05-13 02:53:00
8:53 PM,66.9,50.0,54,30.03,10.0,WNW,5.8,-,N/A,,Clear,300,2013-05-13 03:53:00
9:53 PM,64.0,50.0,60,30.04,10.0,NW,6.9,-,N/A,,Clear,310,2013-05-13 04:53:00
10:53 PM,61.0,51.1,70,30.05,10.0,WNW,8.1,-,N/A,,Clear,300,2013-05-13 05:53:00
11:53 PM,61.0,48.0,62,30.04,10.0,WNW,6.9,-,N/A,,Clear,290,2013-05-13 06:53:00